Other Public Products
Issued by NWS Grand Forks, ND

Home | Current Version | Previous Version | Text Only | Print | Product List | Glossary Off
Versions: 1 2 3 4 5 6 7 8 9 10 11 12 13 14 15 16 17 18 19 20 21 22 23 24 25 26 27 28 29 30 31 32 33 34 35 36 37 38 39 40 41 42 43 44 45 46 47 48 49 50

000
FPUS83 KFGF 230031
OPUFGF
PRAIRIE TO PINES WEATHER ROUNDUP
NATIONAL WEATHER SERVICE EASTERN NORTH DAKOTA/GRAND FORKS ND
700 PM CDT FRI AUG 22 2014

 **SATELLITE DATA USED TO AUGMENT SKY COVER AT AUTOMATED STATIONS**
 *****  WEATHER ACROSS EASTERN NORTH DAKOTA  *****

CITY           SKY/WX    TMP DP  RH WIND       PRES   REMARKS
GRAND FORKS    CLOUDY    70  63  78 N10       30.04R
6HR MIN TEMP:  68; 6HR MAX TEMP:  73;

GRAND FORKS AF CLOUDY    70  66  86 N8        30.06R
GRAND CITY NWS   N/A     63 N/A N/A N2          N/A
BUXTON           N/A     71  67  89 N5          N/A
DEVILS LAKE    CLOUDY    66  57  72 N12       30.08S
6HR MIN TEMP:  64; 6HR MAX TEMP:  70;

FARGO          CLOUDY    71  66  84 N13       30.02S
6HR MIN TEMP:  71; 6HR MAX TEMP:  75;

WAHPETON ARPT  MOCLDY    72  64  78 N8        30.02R
$$

 *****  WEATHER ACROSS CENTRAL AND WESTERN NORTH DAKOTA  *****

CITY           SKY/WX    TMP DP  RH WIND       PRES   REMARKS
JAMESTOWN      PTSUNNY   71  64  78 NE9       30.05S
6HR MIN TEMP:  71; 6HR MAX TEMP:  76;

BISMARCK       CLOUDY    68  65  90 E12       30.05F
6HR MIN TEMP:  68; 6HR MAX TEMP:  76; 6HR PCP:  0.01;

MINOT          CLOUDY    65  60  84 NE8       30.10F
6HR MIN TEMP:  63; 6HR MAX TEMP:  65; 6HR PCP:  0.02;

MINOT AFB      CLOUDY    65  60  81 NE8       30.10F
6HR MIN TEMP:  64; 6HR MAX TEMP:  67; 6HR PCP: TRACE;

GARRISON         N/A     65  61  87 NE10G18   30.09S
6HR MIN TEMP:  64; 6HR MAX TEMP:  68; 6HR PCP:  0.01;

WILLISTON      CLOUDY    66  55  67 E12       30.11S
6HR MIN TEMP:  66; 6HR MAX TEMP:  69;

DICKINSON      CLOUDY    68  61  78 NE12      30.06S
6HR MIN TEMP:  65; 6HR MAX TEMP:  71; 6HR PCP: TRACE;

HETTINGER      CLOUDY    71  60  68 E10       30.05S
6HR MIN TEMP:  67; 6HR MAX TEMP:  73;

$$

 *****  OTHER OBSERVATIONS NORTHEAST NORTH DAKOTA  *****

CITY           SKY/WX    TMP DP  RH WIND       PRES   REMARKS
WALHALLA         N/A     66  63  88 N14       30.10R
LANGDON        CLOUDY    64  57  77 N9        30.11S
CAVALIER       MOCLDY    66  59  77 N12       30.08S
GRAFTON        CLOUDY    68  61  77 N14G20    30.05F
CANDO          CLOUDY    64  57  77 NE7       30.12R
FORT TOTTEN      N/A     67  61  80 NE5       29.95S
ROLLA          CLOUDY    63  61  94 NE7       30.14R
RUGBY          CLOUDY    64  59  82 NE9       30.11S
 ***** THE ABOVE OBSERVATIONS ARE NON NWS ARE NOT QUALITY
        CONTROLLED AND MAY MIS-REPORT RAIN FOR SNOW...
$$

 *****  OTHER OBSERVATIONS SOUTHEAST NORTH DAKOTA *****

CITY           SKY/WX    TMP DP  RH WIND       PRES   REMARKS
COOPERSTOWN    NOT AVBL
VALLEY CITY    MOCLDY    68  68 100 NE12      30.06R
OAKES            N/A     73  70  88 NE9       30.02S
GWINNER        MOCLDY    73  68  83 NE10      30.04R
SHEYENNE NWR     N/A     74  66  75 NE7       29.95
BUFFALO          N/A     70  60  72 NE12        N/A
WYNDMERE       NOT AVBL
 ***** THE ABOVE OBSERVATIONS ARE NON NWS ARE NOT QUALITY
       CONTROLLED AND MAY MIS-REPORT RAIN FOR SNOW...
$$

  *****  WEATHER ACROSS NORTHERN MINNESOTA  *****

CITY           SKY/WX    TMP DP  RH WIND       PRES   REMARKS
FLAG ISLAND    PTSUNNY   72  63  73 CALM      30.03R
WARROAD        PTSUNNY   70  66  88 CALM      30.05R
ROSEAU         MOSUNNY   70  64  83 CALM      30.04S
HALLOCK        PTSUNNY   70  63  78 N10       30.06S
THF RVR FALLS  CLOUDY    72  66  83 NW9       30.03S
6HR MIN TEMP:  70; 6HR MAX TEMP:  73;

HALSTAD          N/A     68  66  94 N8          N/A
FOSSTON        CLOUDY    72  66  83 CALM      30.03R
BAUDETTE       CLOUDY    70  66  87 N7        30.03S
6HR MIN TEMP:  70; 6HR MAX TEMP:  77; 6HR PCP: TRACE;

WASKISH        CLOUDY    73  68  83 CALM      30.02S
CROOKSTON      CLOUDY    66  66 100 N14       30.04S
$$
  *****  WEATHER ACROSS CENTRAL AND WEST MINNESOTA  *****

CITY           SKY/WX    TMP DP  RH WIND       PRES   REMARKS
BEMIDJI        PTSUNNY   70  68  93 E5        30.02S
PARK RAPIDS    CLOUDY    74  68  81 NW6       30.02R
6HR MIN TEMP:  71; 6HR MAX TEMP:  79; 6HR PCP:  0.02;

WADENA         CLOUDY    73  68  83 N5        30.01S
DETROIT LAKES  PTSUNNY   72  64  78 N6        30.05R
MOORHEAD       MOSUNNY   72  70  94 N12       30.03S
FERGUS FALLS   PTSUNNY   75  64  69 N10       30.01R
ELBOW LAKE     FAIR      74  69  83 N7        30.01R
6HR MIN TEMP:  74; 6HR MAX TEMP:  80;

MORRIS MN      PTSUNNY   79  70  73 NW10      29.99R
STAPLES        PTSUNNY   75  66  73 CALM      30.00S
WHEATON        PTSUNNY   72  66  83 N7        30.02S
$$
  *****  WEATHER ELSEWHERE ACROSS MINNESOTA  *****

CITY           SKY/WX    TMP DP  RH WIND       PRES   REMARKS
DULUTH         CLOUDY    63  60  90 E8        30.04R
6HR MIN TEMP:  64; 6HR MAX TEMP:  67;

INTRNTL FALLS  MOSUNNY   72  65  78 E3        30.02S
6HR MIN TEMP:  71; 6HR MAX TEMP:  75;

ELY            CLOUDY    70  64  83 CALM      30.05R
CLOQUET        CLOUDY    64  61  88 E6        30.04S
BRAINERD       PTSUNNY   74  68  81 CALM      30.00S
6HR MIN TEMP:  69; 6HR MAX TEMP:  77;

HIBBING        CLOUDY    73  67  81 SE5       30.02S
6HR MIN TEMP:  72; 6HR MAX TEMP:  76;

ALEXANDRIA     PTSUNNY   77  68  73 N9        30.01S
6HR MIN TEMP:  77; 6HR MAX TEMP:  83;

SAINT CLOUD    MOSUNNY   78  68  71 NE5       29.99S
6HR MIN TEMP:  76; 6HR MAX TEMP:  80;

MINNEAPOLIS    CLOUDY    76  68  76 N10       29.98S
6HR MIN TEMP:  74; 6HR MAX TEMP:  79;

$$

  *****  WEATHER ACROSS SOUTH DAKOTA  *****

CITY           SKY/WX    TMP DP  RH WIND       PRES   REMARKS
SIOUX FALLS    PTSUNNY   80  68  66 E10       29.95F
6HR MIN TEMP:  80; 6HR MAX TEMP:  86;

BROOKINGS      NOT AVBL
WATERTOWN      LGT RAIN  72  69  90 E7        29.99F FOG
6HR MIN TEMP:  71; 6HR MAX TEMP:  82; 6HR PCP:  0.18;

HURON          PTSUNNY   76  69  79 NE9       29.95F
6HR MIN TEMP:  76; 6HR MAX TEMP:  86;

SISSETON         N/A     76  70  82 NE6       30.00R
ABERDEEN       PTSUNNY   76  67  73 NE8       30.00S
6HR MIN TEMP:  73; 6HR MAX TEMP:  77;

MITCHELL       PTSUNNY   82  72  71 E5        29.95F
PIERRE         PTSUNNY   76  66  71 NE15      29.96F
6HR MIN TEMP:  74; 6HR MAX TEMP:  81;

MOBRIDGE       PTSUNNY   73  64  73 N7        29.99F
RAPID CITY     PTSUNNY   74  62  66 E7        30.01F
6HR MIN TEMP:  71; 6HR MAX TEMP:  77;

$$

  *****  SOME WEATHER IN NEARBY STATES *****

CITY           SKY/WX    TMP DP  RH WIND       PRES   REMARKS
GLASGOW MT     CLOUDY    65  54  67 E21       30.09R
6HR MIN TEMP:  61; 6HR MAX TEMP:  68; 6HR PCP: TRACE;

GREAT FALLS MT CLOUDY    57  52  83 N14       30.12R
6HR MIN TEMP:  53; 6HR MAX TEMP:  59; 6HR PCP:  0.08;

CHEYENNE WY    LGT RAIN  61  58  90 S20G26    30.11S FOG
6HR MIN TEMP:  62; 6HR MAX TEMP:  73; 6HR PCP:  0.01;

SCOTTSBLUFF NE LGT RAIN  68  62  81 SE9       30.03S
6HR MIN TEMP:  68; 6HR MAX TEMP:  77; 6HR PCP:  0.01;

OMAHA NE       CLOUDY    78  75  90 N3        29.91R
6HR MIN TEMP:  76; 6HR MAX TEMP:  92; 6HR PCP:  0.78;

DES MOINES IA  CLOUDY    83  75  77 SW7       29.91S HX  90
6HR MIN TEMP:  82; 6HR MAX TEMP:  90; 6HR PCP:  0.07;

DAVENPORT IA   CLOUDY    83  74  74 CALM      29.94S
6HR MIN TEMP:  80; 6HR MAX TEMP:  86;

CHICAGO IL     MOCLDY    82  72  71 W6        29.94R
6HR MIN TEMP:  82; 6HR MAX TEMP:  86;

EAU CLAIRE WI  CLEAR     80  71  74 N9        29.95R
6HR MIN TEMP:  80; 6HR MAX TEMP:  86;

LA CROSSE WI   CLEAR     85  73  67 NW3       29.92S HX  91
6HR MIN TEMP:  79; 6HR MAX TEMP:  89;

$$

  *****  SOME NATIONAL WEATHER *****

CITY           SKY/WX    TMP DP  RH WIND       PRES   REMARKS



USA.gov is the U.S. government's official web portal to all federal, state and local government web resources and services.